| time (UTC) | temp F | wind direction | speed MPH | gust MPH | rain 1hr in | rain 24hr in | rain mn in | humidity % | barometer mb |
| 20260904153103 | 80 | 290 | 0.0 | 7.0 | 0.00 | 0.00 | 0.00 | 39 | 1009.5 |
| 20260904151207 | 80 | 9 | 0.0 | 7.0 | 0.00 | 0.00 | 0.00 | 37 | 1009.4 |
| 20260904145206 | 79 | 264 | 0.0 | 2.0 | 0.00 | 0.00 | 0.00 | 31 | 1009.6 |
| 20260904143205 | 79 | 300 | 0.0 | 2.0 | 0.00 | 0.00 | 0.00 | 20 | 1009.6 |
| 20260904143103 | 78 | 300 | 0.0 | 2.0 | 0.00 | 0.00 | 0.00 | 19 | 1009.6 |
| 20260904141208 | 77 | 36 | 0.0 | 2.0 | 0.00 | 0.00 | 0.00 | 100 | 1009.7 |
| 20260904135206 | 75 | 210 | 0.0 | 0.0 | 0.00 | 0.00 | 0.00 | 100 | 1009.8 |
| 20260904133208 | 73 | 209 | 0.0 | 0.0 | 0.00 | 0.00 | 0.00 | 100 | 1010.0 |
| 20260904133103 | 73 | 209 | 0.0 | 0.0 | 0.00 | 0.00 | 0.00 | 100 | 1010.0 |
| 20260904125205 | 70 | 209 | 0.0 | 0.0 | 0.00 | 0.00 | 0.00 | 100 | 1010.2 |
| 20260904123103 | 70 | 209 | 0.0 | 0.0 | 0.00 | 0.00 | 0.00 | 100 | 1010.2 |
| 20260904113206 | 68 | 209 | 0.0 | 0.0 | 0.00 | 0.00 | 0.00 | 100 | 1010.0 |
| 20260904113103 | 68 | 209 | 0.0 | 0.0 | 0.00 | 0.00 | 0.00 | 100 | 1009.9 |
| 20260904111205 | 68 | 209 | 0.0 | 0.0 | 0.00 | 0.00 | 0.00 | 100 | 1009.7 |
| 20260904105206 | 68 | 209 | 0.0 | 0.0 | 0.00 | 0.00 | 0.00 | 100 | 1009.8 |
| 20260904103103 | 68 | 209 | 0.0 | 0.0 | 0.00 | 0.00 | 0.00 | 100 | 1009.8 |
| 20260904101205 | 68 | 209 | 0.0 | 0.0 | 0.00 | 0.00 | 0.00 | 100 | 1009.5 |
| 20260904093205 | 69 | 209 | 0.0 | 0.0 | 0.00 | 0.00 | 0.00 | 100 | 1009.4 |
| 20260904093102 | 69 | 209 | 0.0 | 0.0 | 0.00 | 0.00 | 0.00 | 100 | 1009.5 |
| 20260904083205 | 69 | 209 | 0.0 | 0.0 | 0.00 | 0.00 | 0.00 | 100 | 1009.3 |
| 20260904083102 | 68 | 209 | 0.0 | 0.0 | 0.00 | 0.00 | 0.00 | 100 | 1009.3 |
| 20260904081205 | 69 | 209 | 0.0 | 0.0 | 0.00 | 0.00 | 0.00 | 100 | 1009.4 |
| 20260904075205 | 69 | 209 | 0.0 | 0.0 | 0.00 | 0.00 | 0.00 | 100 | 1009.4 |
| 20260904073205 | 69 | 209 | 0.0 | 0.0 | 0.00 | 0.00 | 0.00 | 100 | 1009.5 |
| 20260904073102 | 69 | 209 | 0.0 | 0.0 | 0.00 | 0.00 | 0.00 | 100 | 1009.5 |
| 20260904071205 | 69 | 209 | 0.0 | 0.0 | 0.00 | 0.00 | 0.00 | 100 | 1010.0 |
| 20260904065205 | 69 | 209 | 0.0 | 0.0 | 0.00 | 0.00 | 0.00 | 100 | 1010.1 |
| 20260904063205 | 69 | 209 | 0.0 | 0.0 | 0.00 | 0.00 | 0.00 | 100 | 1010.4 |
| 20260904063102 | 69 | 209 | 0.0 | 0.0 | 0.00 | 0.00 | 0.00 | 100 | 1010.4 |
| 20260904061205 | 69 | 209 | 0.0 | 0.0 | 0.00 | 0.00 | 0.00 | 100 | 1010.3 |
| 20260904053206 | 69 | 209 | 0.0 | 0.0 | 0.00 | 0.00 | 0.00 | 100 | 1010.8 |
| 20260904053102 | 69 | 209 | 0.0 | 0.0 | 0.00 | 0.00 | 0.00 | 100 | 1010.8 |
| 20260904051205 | 70 | 209 | 0.0 | 0.0 | 0.00 | 0.00 | 0.00 | 100 | 1010.8 |
| 20260904045205 | 70 | 209 | 0.0 | 0.0 | 0.00 | 0.00 | 0.00 | 100 | 1011.2 |
| 20260904043205 | 70 | 209 | 0.0 | 0.0 | 0.00 | 0.00 | 0.00 | 100 | 1011.1 |
| 20260904043102 | 70 | 209 | 0.0 | 0.0 | 0.00 | 0.00 | 0.00 | 100 | 1011.1 |
| 20260904033206 | 71 | 209 | 0.0 | 0.0 | 0.00 | 0.00 | 0.00 | 100 | 1011.5 |
| 20260904033103 | 71 | 209 | 0.0 | 0.0 | 0.00 | 0.00 | 0.00 | 100 | 1011.5 |
| 20260904031205 | 71 | 209 | 0.0 | 0.0 | 0.00 | 0.00 | 0.00 | 100 | 1011.5 |
| 20260904025205 | 72 | 209 | 0.0 | 0.0 | 0.00 | 0.00 | 0.00 | 100 | 1011.6 |
| 20260904023206 | 72 | 209 | 0.0 | 0.0 | 0.00 | 0.00 | 0.00 | 100 | 1011.7 |
| 20260904023103 | 72 | 209 | 0.0 | 0.0 | 0.00 | 0.00 | 0.00 | 100 | 1011.8 |
| 20260904021205 | 72 | 209 | 0.0 | 0.0 | 0.00 | 0.00 | 0.00 | 100 | 1012.1 |
| 20260904015205 | 73 | 209 | 0.0 | 0.0 | 0.00 | 0.00 | 0.00 | 100 | 1012.1 |
| 20260904013205 | 73 | 209 | 0.0 | 0.0 | 0.00 | 0.00 | 0.00 | 100 | 1012.1 |
| 20260904013102 | 73 | 209 | 0.0 | 0.0 | 0.00 | 0.00 | 0.00 | 100 | 1012.1 |
| 20260904011205 | 73 | 209 | 0.0 | 0.0 | 0.00 | 0.00 | 0.00 | 100 | 1012.2 |
| 20260904005205 | 74 | 209 | 0.0 | 0.0 | 0.00 | 0.00 | 0.00 | 100 | 1012.0 |
| 20260904003205 | 74 | 209 | 0.0 | 0.0 | 0.00 | 0.00 | 0.00 | 100 | 1011.9 |
| 20260904003102 | 74 | 209 | 0.0 | 0.0 | 0.00 | 0.00 | 0.00 | 100 | 1011.9 |
| 20260904001205 | 75 | 209 | 0.0 | 0.0 | 0.00 | 0.00 | 0.00 | 100 | 1011.6 |
| 20260903235206 | 75 | 209 | 0.0 | 0.0 | 0.00 | 0.00 | 0.00 | 100 | 1011.5 |
| 20260903233102 | 76 | 209 | 0.0 | 0.0 | 0.00 | 0.00 | 0.00 | 100 | 1011.4 |
| 20260903231205 | 77 | 209 | 0.0 | 0.0 | 0.00 | 0.00 | 0.00 | 100 | 1011.3 |
| 20260903225205 | 78 | 209 | 0.0 | 1.0 | 0.00 | 0.00 | 0.00 | 100 | 1011.0 |
| 20260903223205 | 79 | 209 | 0.0 | 1.0 | 0.00 | 0.00 | 0.00 | 100 | 1011.1 |
| 20260903223103 | 79 | 209 | 0.0 | 1.0 | 0.00 | 0.00 | 0.00 | 100 | 1011.2 |
| 20260903221205 | 79 | 209 | 0.0 | 1.0 | 0.00 | 0.00 | 0.00 | 3 | 1011.2 |
| 20260903215205 | 80 | 209 | 0.0 | 5.0 | 0.00 | 0.00 | 0.00 | 10 | 1011.4 |
| 20260903213205 | 81 | 209 | 0.0 | 5.0 | 0.00 | 0.00 | 0.00 | 21 | 1011.3 |
| 20260903213102 | 81 | 209 | 0.0 | 5.0 | 0.00 | 0.00 | 0.00 | 21 | 1011.2 |
| 20260903211205 | 82 | 209 | 0.0 | 5.0 | 0.00 | 0.00 | 0.00 | 21 | 1011.3 |
| 20260903205207 | 81 | 209 | 0.0 | 0.0 | 0.00 | 0.00 | 0.00 | 18 | 1011.3 |
| 20260903203205 | 81 | 208 | 0.0 | 0.0 | 0.00 | 0.00 | 0.00 | 19 | 1011.3 |
| 20260903203102 | 81 | 209 | 0.0 | 0.0 | 0.00 | 0.00 | 0.00 | 18 | 1011.3 |
| 20260903201205 | 81 | 209 | 0.0 | 0.0 | 0.00 | 0.00 | 0.00 | 13 | 1011.3 |
| 20260903195206 | 80 | 209 | 0.0 | 0.0 | 0.00 | 0.00 | 0.00 | 6 | 1011.6 |
| 20260903193205 | 78 | 209 | 0.0 | 0.0 | 0.00 | 0.00 | 0.00 | 100 | 1012.0 |
| 20260903193102 | 78 | 209 | 0.0 | 0.0 | 0.00 | 0.00 | 0.00 | 100 | 1012.0 |
| 20260903191205 | 79 | 210 | 0.0 | 0.0 | 0.00 | 0.00 | 0.00 | 4 | 1012.1 |
| 20260903185205 | 80 | 210 | 0.0 | 0.0 | 0.00 | 0.00 | 0.00 | 2 | 1012.3 |
| 20260903183205 | 79 | 210 | 0.0 | 0.0 | 0.00 | 0.00 | 0.00 | 8 | 1012.3 |
| 20260903183102 | 79 | 210 | 0.0 | 0.0 | 0.00 | 0.00 | 0.00 | 7 | 1012.3 |
| 20260903181205 | 79 | 210 | 0.0 | 0.0 | 0.00 | 0.00 | 0.00 | 100 | 1012.6 |
| 20260903175205 | 79 | 209 | 0.0 | 10.0 | 0.00 | 0.00 | 0.00 | 100 | 1012.7 |
| 20260903173206 | 77 | 213 | 0.0 | 10.0 | 0.00 | 0.00 | 0.00 | 100 | 1012.5 |
| 20260903173103 | 77 | 213 | 0.0 | 10.0 | 0.00 | 0.00 | 0.00 | 100 | 1012.6 |
| 20260903171205 | 77 | 214 | 0.0 | 10.0 | 0.00 | 0.00 | 0.00 | 100 | 1012.8 |
| 20260903165205 | 76 | 213 | 4.0 | 8.0 | 0.00 | 0.00 | 0.00 | 100 | 1013.1 |
| 20260903163102 | 75 | 215 | 0.0 | 8.0 | 0.00 | 0.00 | 0.00 | 100 | 1013.0 |
| 20260903161205 | 75 | 205 | 0.0 | 8.0 | 0.00 | 0.00 | 0.00 | 100 | 1013.0 |
| 20260903155205 | 73 | 229 | 0.0 | 7.0 | 0.00 | 0.00 | 0.00 | 100 | 1013.2 |